TimeEDT,TemperatureF,Dew PointF,Humidity,Sea Level PressureIn,VisibilityMPH,Wind Direction,Wind SpeedMPH,Gust SpeedMPH,PrecipitationIn,Events,Conditions,WindDirDegrees,DateUTC
12:53 AM,60.1,57.0,90,30.10,4.0,Calm,Calm,-,N/A,,Clear,0,2013-08-22 04:53:00
1:53 AM,60.1,57.0,90,30.10,5.0,Calm,Calm,-,N/A,,Clear,0,2013-08-22 05:53:00
2:53 AM,59.0,55.9,90,30.09,4.0,Calm,Calm,-,N/A,,Clear,0,2013-08-22 06:53:00
3:53 AM,57.9,55.0,90,30.07,3.0,Calm,Calm,-,N/A,,Clear,0,2013-08-22 07:53:00
4:05 AM,55.9,54.0,93,30.11,1.8,SE,4.6,-,N/A,,Clear,130,2013-08-22 08:05:00
4:16 AM,55.9,53.1,90,30.11,3.0,SE,4.6,-,N/A,,Clear,130,2013-08-22 08:16:00
4:29 AM,55.9,54.0,93,30.11,2.5,Calm,Calm,-,N/A,,Clear,0,2013-08-22 08:29:00
4:40 AM,55.9,54.0,93,30.10,4.0,Calm,Calm,-,N/A,,Clear,0,2013-08-22 08:40:00
4:53 AM,55.0,53.1,93,30.06,3.0,ESE,3.5,-,N/A,,Clear,110,2013-08-22 08:53:00
5:34 AM,55.0,53.1,93,30.09,2.5,ESE,3.5,-,N/A,,Clear,120,2013-08-22 09:34:00
5:46 AM,55.9,53.1,90,30.10,4.0,Calm,Calm,-,N/A,,Clear,0,2013-08-22 09:46:00
5:53 AM,61.0,57.0,87,30.05,4.0,Calm,Calm,-,N/A,,Clear,0,2013-08-22 09:53:00
6:39 AM,62.1,59.0,90,30.10,2.5,Variable,3.5,-,N/A,,Clear,0,2013-08-22 10:39:00
6:53 AM,62.1,59.0,90,30.06,2.5,Variable,4.6,-,N/A,,Partly Cloudy,0,2013-08-22 10:53:00
7:04 AM,62.1,59.0,90,30.10,1.8,WSW,4.6,-,N/A,,Mostly Cloudy,240,2013-08-22 11:04:00
7:53 AM,63.0,61.0,93,30.07,1.2,Variable,4.6,-,N/A,,Overcast,0,2013-08-22 11:53:00
8:07 AM,63.0,61.0,93,30.11,0.5,Variable,4.6,-,N/A,Fog,Fog,0,2013-08-22 12:07:00
8:26 AM,64.0,62.1,93,30.11,1.0,SW,4.6,-,N/A,,Overcast,220,2013-08-22 12:26:00
8:53 AM,64.9,62.1,90,30.07,1.2,Variable,3.5,-,N/A,,Overcast,0,2013-08-22 12:53:00
9:09 AM,66.0,62.1,87,30.11,2.5,Calm,Calm,-,N/A,,Overcast,0,2013-08-22 13:09:00
9:17 AM,66.0,62.1,87,30.11,3.0,Variable,5.8,-,N/A,,Overcast,0,2013-08-22 13:17:00
9:53 AM,68.0,62.1,81,30.07,4.0,West,5.8,-,N/A,,Haze,260,2013-08-22 13:53:00
10:27 AM,71.1,63.0,75,30.10,5.0,WSW,8.1,-,N/A,,Haze,240,2013-08-22 14:27:00
10:53 AM,72.0,63.0,73,30.06,6.0,WSW,6.9,-,N/A,,Haze,240,2013-08-22 14:53:00
11:53 AM,75.0,63.0,66,30.04,8.0,West,10.4,-,N/A,,Scattered Clouds,270,2013-08-22 15:53:00
12:53 PM,78.1,63.0,60,30.03,9.0,West,6.9,-,N/A,,Mostly Cloudy,270,2013-08-22 16:53:00
1:53 PM,77.0,62.1,60,30.01,10.0,West,11.5,-,N/A,,Mostly Cloudy,280,2013-08-22 17:53:00
2:53 PM,81.0,62.1,52,29.98,-9999.0,WNW,13.8,18.4,N/A,,Unknown,290,2013-08-22 18:53:00
3:53 PM,79.0,62.1,56,29.97,10.0,West,11.5,-,N/A,,Overcast,280,2013-08-22 19:53:00
4:41 PM,73.0,63.0,71,30.04,1.8,NW,28.8,46.0,0.07,Rain,Light Rain,310,2013-08-22 20:41:00
4:47 PM,66.2,60.8,83,30.04,0.5,West,12.7,46.0,0.22,Rain,Heavy Rain,270,2013-08-22 20:47:00
4:53 PM,66.0,62.1,87,30.01,0.8,West,9.2,24.2,0.32,Rain,Heavy Rain,270,2013-08-22 20:53:00
5:00 PM,66.0,63.0,90,30.03,2.5,SW,4.6,-,0.00,Rain,Light Rain,220,2013-08-22 21:00:00
5:07 PM,66.9,63.0,87,30.03,10.0,WSW,3.5,-,0.00,,Scattered Clouds,250,2013-08-22 21:07:00
5:53 PM,72.0,64.9,78,29.98,10.0,West,8.1,-,0.00,,Clear,280,2013-08-22 21:53:00
6:53 PM,71.1,62.1,73,29.98,10.0,NW,10.4,-,N/A,,Clear,310,2013-08-22 22:53:00
7:53 PM,69.1,62.1,78,29.99,9.0,WNW,5.8,-,N/A,,Clear,290,2013-08-22 23:53:00
8:53 PM,66.0,62.1,87,30.01,8.0,Calm,Calm,-,N/A,,Partly Cloudy,0,2013-08-23 00:53:00
9:46 PM,64.9,62.1,90,30.06,5.0,Calm,Calm,-,N/A,,Mostly Cloudy,0,2013-08-23 01:46:00
9:53 PM,64.0,62.1,93,30.02,4.0,Calm,Calm,-,N/A,,Mostly Cloudy,0,2013-08-23 01:53:00
10:22 PM,66.0,63.0,90,30.06,8.0,WNW,4.6,-,N/A,,Mostly Cloudy,290,2013-08-23 02:22:00
10:53 PM,64.0,62.1,93,30.03,6.0,Calm,Calm,-,N/A,,Partly Cloudy,0,2013-08-23 02:53:00
11:53 PM,62.1,60.1,93,30.03,6.0,NW,3.5,-,N/A,,Partly Cloudy,310,2013-08-23 03:53:00